LPE2111 SPJC-SPQU

Flight info

Callsign LPE2111
Flight time 1h 3m
Altitude 35000
Route PAKOL5 AKSOL UT222 ASUPA ASUP1B
Aircraft A319/M-SDE3FGHIRWY/LB1

Departure

Time 2026-05-08 04:29
Airport Jorge Chávez International Airport (SPJC)

Arrival

Time 2026-05-08 05:33
Airport Rodríguez Ballón International Airport (SPQU)
Time Latitude Longitude Altitude Speed Heading
2026-05-08 04:05 -12.02792 -77.12004 75 ft 0 kts 244°
2026-05-08 04:10 -12.02792 -77.12003 75 ft 0 kts 244°
2026-05-08 04:16 -12.02787 -77.11992 66 ft 3 kts 245°
2026-05-08 04:16 -12.02778 -77.11973 68 ft 3 kts 252°
2026-05-08 04:16 -12.02775 -77.11954 73 ft 3 kts 287°
2026-05-08 04:17 -12.02780 -77.11944 72 ft 1 kts 335°
2026-05-08 04:17 -12.02781 -77.11944 72 ft 3 kts 335°
2026-05-08 04:21 -12.02776 -77.11946 72 ft 2 kts 335°
2026-05-08 04:22 -12.02759 -77.11946 75 ft 4 kts 25°
2026-05-08 04:22 -12.02734 -77.11931 82 ft 4 kts 23°
2026-05-08 04:22 -12.02705 -77.11939 82 ft 6 kts 339°
2026-05-08 04:22 -12.02656 -77.11964 80 ft 10 kts 334°
2026-05-08 04:23 -12.02591 -77.11996 80 ft 10 kts 334°
2026-05-08 04:23 -12.02547 -77.12042 80 ft 10 kts 273°
2026-05-08 04:23 -12.02581 -77.12124 65 ft 14 kts 244°
2026-05-08 04:23 -12.02528 -77.12207 66 ft 17 kts 335°
2026-05-08 04:24 -12.02435 -77.12252 60 ft 14 kts 334°
2026-05-08 04:24 -12.02340 -77.12299 56 ft 16 kts 334°
2026-05-08 04:24 -12.02243 -77.12347 53 ft 14 kts 334°
2026-05-08 04:24 -12.02176 -77.12326 54 ft 10 kts 59°
2026-05-08 04:25 -12.02151 -77.12275 54 ft 6 kts 64°
2026-05-08 04:25 -12.02137 -77.12244 53 ft 4 kts 64°
2026-05-08 04:25 -12.02126 -77.12222 57 ft 3 kts 64°
2026-05-08 04:25 -12.02108 -77.12185 59 ft 9 kts 63°
2026-05-08 04:26 -12.02074 -77.12113 59 ft 12 kts 64°
2026-05-08 04:26 -12.02037 -77.12036 60 ft 13 kts 64°
2026-05-08 04:26 -12.01993 -77.11943 65 ft 16 kts 64°
2026-05-08 04:26 -12.01940 -77.11833 64 ft 15 kts 64°
2026-05-08 04:27 -12.01902 -77.11767 63 ft 10 kts 40°
2026-05-08 04:27 -12.01829 -77.11784 65 ft 13 kts 335°
2026-05-08 04:27 -12.01731 -77.11833 66 ft 18 kts 333°
2026-05-08 04:27 -12.01620 -77.11890 63 ft 12 kts 335°
2026-05-08 04:28 -12.01551 -77.11846 63 ft 13 kts 63°
2026-05-08 04:28 -12.01538 -77.11818 64 ft 1 kts 63°
2026-05-08 04:28 -12.01529 -77.11801 60 ft 4 kts 63°
2026-05-08 04:28 -12.01523 -77.11764 62 ft 7 kts 115°
2026-05-08 04:29 -12.01647 -77.11700 64 ft 54 kts 154°
2026-05-08 04:29 -12.02239 -77.11407 77 ft 133 kts 154°
2026-05-08 04:29 -12.03186 -77.10947 518 ft 152 kts 155°
2026-05-08 04:29 -12.04139 -77.10473 1228 ft 153 kts 155°
2026-05-08 04:30 -12.05136 -77.09981 1533 ft 169 kts 155°
2026-05-08 04:30 -12.06264 -77.09425 1758 ft 191 kts 155°
2026-05-08 04:30 -12.07543 -77.08794 2009 ft 217 kts 155°
2026-05-08 04:30 -12.08979 -77.08085 2401 ft 241 kts 154°
2026-05-08 04:31 -12.10557 -77.07305 2927 ft 260 kts 154°
2026-05-08 04:31 -12.12208 -77.06487 3734 ft 267 kts 154°
2026-05-08 04:31 -12.13886 -77.05657 4604 ft 269 kts 154°
2026-05-08 04:31 -12.15555 -77.04831 5441 ft 271 kts 154°
2026-05-08 04:32 -12.17266 -77.03986 6227 ft 275 kts 154°
2026-05-08 04:32 -12.18998 -77.03131 6965 ft 278 kts 154°
2026-05-08 04:32 -12.20754 -77.02262 7688 ft 282 kts 154°
2026-05-08 04:32 -12.22527 -77.01361 8383 ft 287 kts 149°
2026-05-08 04:33 -12.24100 -77.00088 9065 ft 292 kts 133°
2026-05-08 04:33 -12.25266 -76.98381 9765 ft 296 kts 117°
2026-05-08 04:33 -12.26183 -76.96474 10253 ft 307 kts 116°
2026-05-08 04:33 -12.27145 -76.94467 10393 ft 328 kts 116°
2026-05-08 04:34 -12.28180 -76.92317 10840 ft 336 kts 116°
2026-05-08 04:34 -12.29208 -76.90190 11398 ft 339 kts 116°
2026-05-08 04:34 -12.30254 -76.88022 11995 ft 342 kts 116°
2026-05-08 04:34 -12.31309 -76.85830 12550 ft 345 kts 116°
2026-05-08 04:35 -12.32379 -76.83615 13074 ft 349 kts 116°
2026-05-08 04:35 -12.33457 -76.81380 13625 ft 352 kts 116°
2026-05-08 04:35 -12.34545 -76.79126 14138 ft 354 kts 116°
2026-05-08 04:35 -12.35638 -76.76858 14618 ft 357 kts 116°
2026-05-08 04:36 -12.36738 -76.74572 15104 ft 359 kts 116°
2026-05-08 04:36 -12.37844 -76.72271 15583 ft 361 kts 116°
2026-05-08 04:36 -12.38956 -76.69960 16068 ft 364 kts 116°
2026-05-08 04:36 -12.40080 -76.67625 16540 ft 366 kts 116°
2026-05-08 04:37 -12.41208 -76.65281 17024 ft 369 kts 116°
2026-05-08 04:37 -12.42345 -76.62922 17536 ft 371 kts 116°
2026-05-08 04:37 -12.43492 -76.60547 17986 ft 374 kts 116°
2026-05-08 04:37 -12.44650 -76.58157 18431 ft 376 kts 116°
2026-05-08 04:38 -12.45818 -76.55751 18824 ft 379 kts 116°
2026-05-08 04:38 -12.46998 -76.53326 19232 ft 381 kts 116°
2026-05-08 04:38 -12.48183 -76.50890 19643 ft 384 kts 116°
2026-05-08 04:38 -12.49361 -76.48465 20072 ft 387 kts 116°
2026-05-08 04:39 -12.50562 -76.45993 20480 ft 390 kts 116°
2026-05-08 04:39 -12.51770 -76.43501 20879 ft 392 kts 116°
2026-05-08 04:39 -12.52984 -76.40990 21283 ft 395 kts 116°
2026-05-08 04:39 -12.54205 -76.38462 21679 ft 397 kts 116°
2026-05-08 04:40 -12.55433 -76.35919 22112 ft 400 kts 116°
2026-05-08 04:40 -12.56670 -76.33356 22478 ft 403 kts 116°
2026-05-08 04:40 -12.57916 -76.30779 22875 ft 406 kts 116°
2026-05-08 04:40 -12.59172 -76.28183 23259 ft 408 kts 116°
2026-05-08 04:41 -12.60439 -76.25567 23629 ft 411 kts 117°
2026-05-08 04:41 -12.61711 -76.22937 23942 ft 414 kts 117°
2026-05-08 04:41 -12.62991 -76.20289 24286 ft 416 kts 117°
2026-05-08 04:41 -12.64279 -76.17622 24585 ft 419 kts 117°
2026-05-08 04:42 -12.65574 -76.14938 24888 ft 422 kts 117°
2026-05-08 04:42 -12.66871 -76.12242 25227 ft 423 kts 117°
2026-05-08 04:42 -12.68174 -76.09535 25556 ft 425 kts 117°
2026-05-08 04:42 -12.69488 -76.06812 25868 ft 427 kts 117°
2026-05-08 04:43 -12.70806 -76.04074 26157 ft 430 kts 117°
2026-05-08 04:43 -12.72174 -76.01340 26437 ft 432 kts 122°
2026-05-08 04:43 -12.73907 -75.98880 26721 ft 433 kts 133°
2026-05-08 04:43 -12.76094 -75.96767 26977 ft 434 kts 144°
2026-05-08 04:44 -12.78644 -75.95118 27238 ft 434 kts 155°
2026-05-08 04:44 -12.81458 -75.93982 27508 ft 435 kts 164°
2026-05-08 04:44 -12.84340 -75.93013 27756 ft 438 kts 163°
2026-05-08 04:44 -12.87248 -75.92023 28108 ft 440 kts 163°
2026-05-08 04:45 -12.90157 -75.91020 28402 ft 442 kts 163°
2026-05-08 04:45 -12.93087 -75.90006 28708 ft 445 kts 163°
2026-05-08 04:45 -12.96027 -75.88987 29008 ft 447 kts 163°
2026-05-08 04:45 -12.98977 -75.87963 29288 ft 449 kts 163°
2026-05-08 04:46 -13.01946 -75.86934 29585 ft 451 kts 163°
2026-05-08 04:46 -13.04935 -75.85901 29881 ft 453 kts 164°
2026-05-08 04:46 -13.07931 -75.84868 30162 ft 456 kts 164°
2026-05-08 04:46 -13.10946 -75.83834 30382 ft 458 kts 164°
2026-05-08 04:47 -13.13979 -75.82797 30614 ft 460 kts 164°
2026-05-08 04:47 -13.17031 -75.81753 30843 ft 463 kts 164°
2026-05-08 04:47 -13.20093 -75.80701 31071 ft 465 kts 164°
2026-05-08 04:47 -13.23166 -75.79642 31295 ft 467 kts 164°
2026-05-08 04:48 -13.26252 -75.78577 31550 ft 468 kts 164°
2026-05-08 04:48 -13.29329 -75.77490 31916 ft 469 kts 161°
2026-05-08 04:48 -13.32231 -75.76033 32229 ft 472 kts 151°
2026-05-08 04:48 -13.34904 -75.74056 32514 ft 476 kts 141°
2026-05-08 04:49 -13.37256 -75.71649 32832 ft 478 kts 135°
2026-05-08 04:49 -13.39532 -75.69165 33147 ft 478 kts 135°
2026-05-08 04:49 -13.41814 -75.66682 33480 ft 478 kts 135°
2026-05-08 04:49 -13.44102 -75.64196 33821 ft 478 kts 135°
2026-05-08 04:50 -13.46392 -75.61712 34149 ft 479 kts 135°
2026-05-08 04:50 -13.48689 -75.59223 34396 ft 479 kts 135°
2026-05-08 04:50 -13.50984 -75.56732 34635 ft 480 kts 135°
2026-05-08 04:50 -13.53279 -75.54240 34796 ft 480 kts 135°
2026-05-08 04:51 -13.55577 -75.51743 34971 ft 481 kts 135°
2026-05-08 04:51 -13.57872 -75.49250 35079 ft 478 kts 135°
2026-05-08 04:51 -13.62397 -75.44320 35088 ft 476 kts 135°
2026-05-08 04:52 -13.66942 -75.39370 35070 ft 475 kts 135°
2026-05-08 04:52 -13.70713 -75.35259 35102 ft 475 kts 135°
2026-05-08 04:53 -13.76018 -75.29483 35103 ft 475 kts 135°
2026-05-08 04:53 -13.79787 -75.25381 35079 ft 475 kts 135°
2026-05-08 04:54 -13.84318 -75.20425 35095 ft 475 kts 135°
2026-05-08 04:54 -13.88850 -75.15473 35088 ft 475 kts 135°
2026-05-08 04:55 -13.93380 -75.10523 35061 ft 475 kts 135°
2026-05-08 04:55 -13.97885 -75.05600 35121 ft 476 kts 135°
2026-05-08 04:56 -14.02417 -75.00645 35121 ft 476 kts 135°
2026-05-08 04:56 -14.06954 -74.95681 35086 ft 476 kts 135°
2026-05-08 04:57 -14.11488 -74.90713 35086 ft 476 kts 135°
2026-05-08 04:57 -14.16023 -74.85740 35048 ft 476 kts 135°
2026-05-08 04:58 -14.20562 -74.80766 35047 ft 476 kts 135°
2026-05-08 04:58 -14.25103 -74.75785 35067 ft 477 kts 135°
2026-05-08 04:59 -14.29618 -74.70835 35045 ft 477 kts 135°
2026-05-08 04:59 -14.34162 -74.65847 35046 ft 477 kts 135°
2026-05-08 05:00 -14.38703 -74.60860 35081 ft 476 kts 135°
2026-05-08 05:00 -14.43237 -74.55868 35073 ft 477 kts 135°
2026-05-08 05:01 -14.47770 -74.50864 35069 ft 477 kts 135°
2026-05-08 05:01 -14.52304 -74.45862 35093 ft 477 kts 135°
2026-05-08 05:02 -14.56845 -74.40860 35092 ft 477 kts 135°
2026-05-08 05:02 -14.61387 -74.35849 35091 ft 478 kts 135°
2026-05-08 05:03 -14.65926 -74.30834 35119 ft 478 kts 135°
2026-05-08 05:03 -14.70471 -74.25816 35092 ft 479 kts 135°
2026-05-08 05:04 -14.74989 -74.20823 35121 ft 478 kts 135°
2026-05-08 05:04 -14.79519 -74.15784 35126 ft 480 kts 131°
2026-05-08 05:05 -14.83426 -74.10190 35090 ft 480 kts 126°
2026-05-08 05:05 -14.87241 -74.04524 35114 ft 480 kts 126°
2026-05-08 05:06 -14.91060 -73.98872 35115 ft 480 kts 126°
2026-05-08 05:06 -14.94885 -73.93213 35114 ft 480 kts 126°
2026-05-08 05:07 -14.98703 -73.87535 35108 ft 480 kts 126°
2026-05-08 05:07 -15.02496 -73.81889 35108 ft 481 kts 126°
2026-05-08 05:08 -15.06313 -73.76209 35125 ft 481 kts 126°
2026-05-08 05:08 -15.10137 -73.70508 35116 ft 482 kts 126°
2026-05-08 05:09 -15.13958 -73.64811 35136 ft 482 kts 126°
2026-05-08 05:09 -15.17792 -73.59107 35117 ft 483 kts 126°
2026-05-08 05:10 -15.23520 -73.50575 35132 ft 483 kts 126°
2026-05-08 05:11 -15.27343 -73.44851 35135 ft 483 kts 126°
2026-05-08 05:11 -15.31161 -73.39129 35104 ft 483 kts 126°
2026-05-08 05:12 -15.34987 -73.33413 35112 ft 483 kts 126°
2026-05-08 05:12 -15.38815 -73.27695 35124 ft 483 kts 126°
2026-05-08 05:13 -15.42629 -73.21961 35093 ft 483 kts 126°
2026-05-08 05:13 -15.46443 -73.16235 34883 ft 482 kts 126°
2026-05-08 05:13 -15.48354 -73.13375 34329 ft 484 kts 126°
2026-05-08 05:14 -15.50268 -73.10508 33796 ft 482 kts 126°
2026-05-08 05:14 -15.52171 -73.07650 33303 ft 481 kts 126°
2026-05-08 05:14 -15.54064 -73.04799 32751 ft 479 kts 126°
2026-05-08 05:14 -15.55943 -73.01967 32248 ft 475 kts 126°
2026-05-08 05:15 -15.57809 -72.99158 31864 ft 470 kts 126°
2026-05-08 05:15 -15.59658 -72.96374 31383 ft 466 kts 126°
2026-05-08 05:15 -15.61482 -72.93628 31018 ft 460 kts 126°
2026-05-08 05:15 -15.63294 -72.90905 30553 ft 456 kts 127°
2026-05-08 05:16 -15.65062 -72.88249 30154 ft 451 kts 127°
2026-05-08 05:16 -15.66838 -72.85580 29631 ft 447 kts 127°
2026-05-08 05:16 -15.68598 -72.82930 29112 ft 444 kts 127°
2026-05-08 05:16 -15.70346 -72.80298 28663 ft 440 kts 127°
2026-05-08 05:17 -15.72080 -72.77689 28110 ft 439 kts 127°
2026-05-08 05:17 -15.73798 -72.75098 27700 ft 434 kts 127°
2026-05-08 05:17 -15.75499 -72.72526 27274 ft 430 kts 127°
2026-05-08 05:17 -15.77185 -72.69978 26808 ft 427 kts 127°
2026-05-08 05:18 -15.78860 -72.67451 26339 ft 423 kts 127°
2026-05-08 05:18 -15.80523 -72.64947 25931 ft 420 kts 127°
2026-05-08 05:18 -15.82175 -72.62456 25487 ft 418 kts 127°
2026-05-08 05:18 -15.83821 -72.59968 25065 ft 417 kts 126°
2026-05-08 05:19 -15.85450 -72.57503 24669 ft 414 kts 127°
2026-05-08 05:19 -15.87077 -72.55040 24342 ft 409 kts 126°
2026-05-08 05:19 -15.88681 -72.52610 23984 ft 407 kts 126°
2026-05-08 05:19 -15.90275 -72.50192 23557 ft 404 kts 126°
2026-05-08 05:20 -15.91857 -72.47792 23073 ft 402 kts 126°
2026-05-08 05:20 -15.93431 -72.45408 22614 ft 399 kts 126°
2026-05-08 05:20 -15.94975 -72.43074 22199 ft 395 kts 126°
2026-05-08 05:20 -15.96527 -72.40731 21776 ft 392 kts 126°
2026-05-08 05:21 -15.98061 -72.38410 21247 ft 387 kts 126°
2026-05-08 05:21 -15.99572 -72.36121 20745 ft 381 kts 126°
2026-05-08 05:21 -16.01054 -72.33876 20340 ft 373 kts 126°
2026-05-08 05:21 -16.02502 -72.31677 19930 ft 365 kts 126°
2026-05-08 05:22 -16.03925 -72.29517 19544 ft 358 kts 125°
2026-05-08 05:22 -16.05318 -72.27403 19161 ft 351 kts 125°
2026-05-08 05:22 -16.06683 -72.25325 18800 ft 345 kts 126°
2026-05-08 05:22 -16.08026 -72.23283 18424 ft 340 kts 125°
2026-05-08 05:23 -16.09350 -72.21269 18028 ft 334 kts 125°
2026-05-08 05:23 -16.10649 -72.19297 17668 ft 327 kts 125°
2026-05-08 05:23 -16.11946 -72.17333 17039 ft 329 kts 125°
2026-05-08 05:23 -16.13225 -72.15396 16662 ft 320 kts 126°
2026-05-08 05:24 -16.14464 -72.13514 16309 ft 309 kts 125°
2026-05-08 05:24 -16.15659 -72.11698 15986 ft 300 kts 125°
2026-05-08 05:24 -16.16837 -72.09909 15681 ft 300 kts 125°
2026-05-08 05:24 -16.17999 -72.08147 15360 ft 298 kts 126°
2026-05-08 05:25 -16.19161 -72.06381 15055 ft 295 kts 126°
2026-05-08 05:25 -16.20312 -72.04634 14747 ft 291 kts 125°
2026-05-08 05:25 -16.21453 -72.02902 14434 ft 290 kts 125°
2026-05-08 05:25 -16.22587 -72.01180 14131 ft 288 kts 125°
2026-05-08 05:26 -16.23717 -71.99468 13816 ft 286 kts 125°
2026-05-08 05:26 -16.24839 -71.97765 13511 ft 285 kts 125°
2026-05-08 05:26 -16.25958 -71.96065 13171 ft 283 kts 125°
2026-05-08 05:26 -16.27071 -71.94375 12871 ft 283 kts 125°
2026-05-08 05:27 -16.28179 -71.92691 12585 ft 282 kts 124°
2026-05-08 05:27 -16.29283 -71.91013 12297 ft 281 kts 124°
2026-05-08 05:27 -16.30381 -71.89342 12055 ft 276 kts 124°
2026-05-08 05:27 -16.31442 -71.87724 11824 ft 267 kts 124°
2026-05-08 05:28 -16.32307 -71.86021 11494 ft 266 kts 110°
2026-05-08 05:28 -16.32710 -71.84158 11207 ft 264 kts 94°
2026-05-08 05:28 -16.32791 -71.82253 10947 ft 264 kts 92°
2026-05-08 05:28 -16.32870 -71.80354 10802 ft 262 kts 92°
2026-05-08 05:29 -16.32951 -71.78479 10736 ft 263 kts 92°
2026-05-08 05:29 -16.33033 -71.76591 10636 ft 257 kts 92°
2026-05-08 05:29 -16.33113 -71.74774 10585 ft 244 kts 92°
2026-05-08 05:29 -16.33195 -71.73068 10635 ft 225 kts 92°
2026-05-08 05:30 -16.33281 -71.71501 10608 ft 208 kts 92°
2026-05-08 05:30 -16.33362 -71.70044 10452 ft 194 kts 92°
2026-05-08 05:30 -16.33436 -71.68697 10266 ft 178 kts 92°
2026-05-08 05:30 -16.33504 -71.67442 10054 ft 169 kts 92°
2026-05-08 05:31 -16.33568 -71.66235 9846 ft 166 kts 92°
2026-05-08 05:31 -16.33632 -71.65047 9633 ft 163 kts 91°
2026-05-08 05:31 -16.33695 -71.63870 9434 ft 162 kts 91°
2026-05-08 05:31 -16.33758 -71.62696 9204 ft 162 kts 91°
2026-05-08 05:32 -16.33827 -71.61524 8951 ft 163 kts 91°
2026-05-08 05:32 -16.33891 -71.60348 8701 ft 164 kts 92°
2026-05-08 05:32 -16.33951 -71.59171 8455 ft 165 kts 92°
2026-05-08 05:32 -16.34010 -71.57996 8318 ft 155 kts 92°
2026-05-08 05:33 -16.34059 -71.57089 8370 ft 86 kts 93°
2026-05-08 05:33 -16.34084 -71.56591 8396 ft 52 kts 93°
2026-05-08 05:33 -16.34102 -71.56277 8407 ft 42 kts 92°
2026-05-08 05:33 -16.34114 -71.56014 8413 ft 36 kts 93°
2026-05-08 05:34 -16.34127 -71.55782 8413 ft 17 kts 93°
2026-05-08 05:34 -16.34175 -71.55736 8413 ft 13 kts 217°
2026-05-08 05:34 -16.34229 -71.55833 8407 ft 20 kts 245°
2026-05-08 05:34 -16.34319 -71.55979 8388 ft 27 kts 236°
2026-05-08 05:35 -16.34378 -71.56088 8380 ft 19 kts 258°
2026-05-08 05:35 -16.34375 -71.56251 8365 ft 26 kts 272°
2026-05-08 05:35 -16.34367 -71.56401 8351 ft 14 kts 274°
2026-05-08 05:35 -16.34359 -71.56536 8345 ft 23 kts 272°
2026-05-08 05:36 -16.34352 -71.56693 8345 ft 17 kts 274°
2026-05-08 05:36 -16.34346 -71.56786 8344 ft 12 kts 272°
2026-05-08 05:36 -16.34373 -71.56838 8344 ft 9 kts 216°
2026-05-08 05:36 -16.34388 -71.56849 8346 ft 0 kts 216°
2026-05-08 05:37 -16.34389 -71.56850 8346 ft 0 kts 216°